Indianapolis, IN

11:35 AM EST on November 20, 2019 (GMT -0500)
Indianapolis International

Weather History for KIND - September, 2019

Change the Weather History Date:

Friday, September 27, 2019

  Actual Average Record
Temperature  
Mean Temperature 72 °F 62 °F  
Max Temperature 90 °F 73 °F 93 °F (1998)
Min Temperature 53 °F 51 °F 35 °F (1991)
Degree Days  
Heating Degree Days 0 5  
Month to date heating degree days 0 53  
Since 1 July heating degree days 0 57  
Cooling Degree Days 7 2  
Month to date cooling degree days 226 123  
Year to date cooling degree days 1265 1044  
Growing Degree Days 22 (Base 50)    
Moisture  
Dew Point 55 °F    
Average Humidity 59    
Maximum Humidity 77    
Minimum Humidity 41    
Precipitation  
Precipitation 0.00 in 0.11 in 2.59 in (1996)
Month to date precipitation 0.40 2.80  
Year to date precipitation 36.95 32.13  
Snow  
Snow 0.00 in 0.00 in 0.00 in ()
Month to date snowfall 0.0 0.0  
Since 1 July snowfall 0.0 0.0  
Since 1 September snowfall 0.0 0.0  
Snow Depth 0.00 in    
Sea Level Pressure  
Sea Level Pressure 29.88 in    
Wind  
Wind Speed 13 mph (SSE)    
Max Wind Speed 25 mph    
Max Gust Speed 37 mph    
Visibility 10 miles    
Events      
T = Trace of Precipitation, MM = Missing Value Source: NWS Daily Summary

Daily Weather History Graph

Daily Weather History Graph

Search for Another Location

Airport or City:

Astronomy

Sep. 27, 2019 Rise Set
Actual Time 7:37 AM EDT 7:34 PM EDT
Civil Twilight 7:10 AM EDT 8:01 PM EDT
Nautical Twilight 6:39 AM EDT 8:32 PM EDT
Astronomical Twilight 6:07 AM EDT 9:04 PM EDT
Moon 5:58 AM EDT (9/27) 7:24 PM EDT (9/27)
Length of Visible Light 12h 50m
Length of Day
11h 57m
Waning Crescent, 2% of the Moon is Illuminated
Sep 27
Waning Crescent
Sep 28
New
Oct 5
First Quarter
Oct 13
Full
Oct 21
Last Quarter

Hourly Weather History & Observations

Time (EDT) Temp. Heat Index Dew Point Humidity Pressure Visibility Wind Dir Wind Speed Gust Speed Precip Events Conditions
12:54 AM 57.9 °F - 46.0 °F 65% 29.98 in 10.0 mi Calm Calm - N/A   Clear
1:54 AM 54.0 °F - 46.0 °F 75% 29.96 in 10.0 mi SE 6.9 mph - N/A   Clear
2:54 AM 55.9 °F - 45.0 °F 67% 29.96 in 10.0 mi ESE 4.6 mph - N/A   Clear
3:54 AM 54.0 °F - 45.0 °F 72% 29.94 in 10.0 mi ESE 8.1 mph - N/A   Partly Cloudy
4:54 AM 54.0 °F - 44.1 °F 69% 29.94 in 10.0 mi ESE 8.1 mph - N/A   Partly Cloudy
5:54 AM 53.1 °F - 45.0 °F 74% 29.95 in 10.0 mi SE 6.9 mph - N/A   Partly Cloudy
6:54 AM 53.1 °F - 45.0 °F 74% 29.95 in 10.0 mi SE 6.9 mph - N/A   Mostly Cloudy
7:54 AM 55.0 °F - 45.0 °F 69% 29.94 in 10.0 mi SE 10.4 mph - N/A   Scattered Clouds
8:54 AM 60.1 °F - 45.0 °F 57% 29.95 in 10.0 mi SSE 12.7 mph - N/A   Mostly Cloudy
9:54 AM 63.0 °F - 45.0 °F 52% 29.94 in 10.0 mi SSE 9.2 mph - N/A   Scattered Clouds
10:54 AM 69.1 °F - 48.9 °F 49% 29.91 in 10.0 mi South 5.8 mph - N/A   Mostly Cloudy
11:54 AM 79.0 °F - 57.0 °F 47% 29.89 in 10.0 mi South 18.4 mph 27.6 mph N/A   Partly Cloudy
12:54 PM 82.0 °F 82.1 °F 59.0 °F 45% 29.87 in 10.0 mi SSW 18.4 mph 25.3 mph N/A   Scattered Clouds
1:54 PM 86.0 °F 86.8 °F 63.0 °F 46% 29.86 in 10.0 mi SSW 20.7 mph 27.6 mph N/A   Mostly Cloudy
2:54 PM 87.1 °F 88.3 °F 64.0 °F 46% 29.81 in 10.0 mi South 25.3 mph 33.4 mph N/A   Mostly Cloudy
3:54 PM 90.0 °F 90.6 °F 63.0 °F 40% 29.82 in 10.0 mi SSW 21.9 mph 31.1 mph N/A   Mostly Cloudy
4:54 PM 89.1 °F 89.3 °F 62.1 °F 40% 29.81 in 10.0 mi SSW 23.0 mph 29.9 mph N/A   Mostly Cloudy
5:54 PM 87.1 °F 87.5 °F 62.1 °F 43% 29.83 in 10.0 mi SW 23.0 mph 29.9 mph N/A   Mostly Cloudy
6:54 PM 84.9 °F 85.9 °F 63.0 °F 48% 29.83 in 10.0 mi SSW 8.1 mph - N/A   Mostly Cloudy
7:54 PM 81.0 °F 82.5 °F 64.0 °F 56% 29.81 in 10.0 mi SSE 9.2 mph - N/A   Scattered Clouds
8:54 PM 79.0 °F - 64.0 °F 60% 29.81 in 10.0 mi SSE 10.4 mph - N/A   Partly Cloudy
9:54 PM 78.1 °F - 63.0 °F 60% 29.81 in 10.0 mi SSE 10.4 mph - N/A   Clear
10:54 PM 75.9 °F - 63.0 °F 64% 29.82 in 10.0 mi SSE 9.2 mph - N/A   Clear
11:54 PM 75.9 °F - 63.0 °F 64% 29.83 in 10.0 mi South 11.5 mph - N/A   Partly Cloudy